| time (UTC) | temp C | wind direction | speed KPH | gust KPH | rain 1hr cm | rain 24hr cm | rain mn cm | humidity % | barometer mb |
| 20260502194804 | 12 | 271 | 0.0 | 0.0 | 0.13 | 1.57 | 1.57 | 93 | 1010.7 |
| 20260502194304 | 12 | 272 | 0.0 | 0.0 | 0.15 | 1.57 | 1.57 | 93 | 1010.8 |
| 20260502193804 | 12 | 284 | 0.0 | 0.0 | 0.18 | 1.57 | 1.57 | 93 | 1010.7 |
| 20260502193305 | 12 | 246 | 0.0 | 0.0 | 0.20 | 1.57 | 1.57 | 93 | 1010.7 |
| 20260502192804 | 12 | 270 | 0.0 | 0.0 | 0.20 | 1.55 | 1.55 | 93 | 1010.6 |
| 20260502192305 | 12 | 266 | 0.0 | 0.0 | 0.23 | 1.55 | 1.55 | 93 | 1010.6 |
| 20260502191804 | 12 | 265 | 0.0 | 0.0 | 0.23 | 1.55 | 1.55 | 93 | 1010.6 |
| 20260502191304 | 12 | 264 | 0.0 | 0.0 | 0.23 | 1.55 | 1.55 | 93 | 1010.6 |
| 20260502190805 | 12 | 246 | 0.0 | 0.0 | 0.23 | 1.55 | 1.55 | 93 | 1010.6 |
| 20260502190304 | 12 | 246 | 0.0 | 0.0 | 0.23 | 1.52 | 1.52 | 93 | 1010.6 |
| 20260502185804 | 12 | 245 | 0.0 | 0.0 | 0.25 | 1.50 | 1.50 | 93 | 1010.7 |
| 20260502185305 | 12 | 266 | 0.0 | 4.8 | 0.25 | 1.47 | 1.47 | 93 | 1010.7 |
| 20260502184804 | 12 | 238 | 0.0 | 4.8 | 0.25 | 1.45 | 1.45 | 92 | 1010.7 |
| 20260502184304 | 12 | 237 | 3.2 | 8.0 | 0.28 | 1.42 | 1.42 | 93 | 1010.8 |
| 20260502183804 | 12 | 237 | 0.0 | 3.2 | 0.30 | 1.40 | 1.40 | 92 | 1010.7 |
| 20260502183305 | 12 | 237 | 0.0 | 0.0 | 0.30 | 1.37 | 1.37 | 92 | 1010.7 |
| 20260502181804 | 12 | 229 | 0.0 | 1.6 | 0.41 | 1.35 | 1.35 | 92 | 1010.8 |
| 20260502180805 | 12 | 220 | 0.0 | 0.0 | 0.61 | 1.30 | 1.30 | 92 | 1010.9 |
| 20260502180304 | 12 | 252 | 0.0 | 0.0 | 0.61 | 1.27 | 1.27 | 92 | 1010.9 |
| 20260502170304 | 12 | 292 | 1.6 | 4.8 | 0.18 | 0.69 | 0.69 | 91 | 1011.1 |
| 20260502164304 | 12 | 281 | 0.0 | 8.0 | 0.25 | 0.61 | 0.61 | 90 | 1011.2 |
| 20260502163804 | 12 | 305 | 1.6 | 11.3 | 0.28 | 0.61 | 0.61 | 90 | 1011.2 |
| 20260502163304 | 12 | 300 | 0.0 | 4.8 | 0.30 | 0.61 | 0.61 | 90 | 1011.2 |
| 20260502162804 | 12 | 288 | 3.2 | 4.8 | 0.33 | 0.58 | 0.58 | 89 | 1011.2 |
| 20260502162305 | 12 | 277 | 3.2 | 8.0 | 0.36 | 0.58 | 0.58 | 89 | 1011.4 |
| 20260502161804 | 12 | 297 | 0.0 | 1.6 | 0.38 | 0.56 | 0.56 | 89 | 1011.5 |
| 20260502161304 | 12 | 285 | 0.0 | 0.0 | 0.41 | 0.53 | 0.53 | 88 | 1011.6 |
| 20260502160304 | 12 | 278 | 0.0 | 0.0 | 0.43 | 0.51 | 0.51 | 87 | 1011.9 |
| 20260502152305 | 13 | 226 | 0.0 | 0.0 | 0.23 | 0.23 | 0.23 | 84 | 1012.6 |
| 20260502151304 | 14 | 219 | 1.6 | 8.0 | 0.15 | 0.15 | 0.15 | 84 | 1012.7 |
| 20260502150804 | 14 | 235 | 0.0 | 4.8 | 0.08 | 0.08 | 0.08 | 84 | 1012.7 |
| 20260502150304 | 15 | 267 | 1.6 | 11.3 | 0.05 | 0.05 | 0.05 | 83 | 1012.6 |
| 20260502130304 | 17 | 29 | 3.2 | 8.0 | 0.00 | 0.00 | 0.00 | 71 | 1013.7 |
| 20260502123805 | 17 | 59 | 1.6 | 4.8 | 0.00 | 0.00 | 0.00 | 70 | 1014.0 |
| 20260502123304 | 17 | 271 | 4.8 | 4.8 | 0.00 | 0.00 | 0.00 | 70 | 1014.0 |
| 20260502122804 | 17 | 46 | 1.6 | 4.8 | 0.00 | 0.00 | 0.00 | 70 | 1014.1 |
| 20260502122306 | 17 | 53 | 3.2 | 4.8 | 0.00 | 0.00 | 0.00 | 70 | 1014.3 |
| 20260502121803 | 17 | 250 | 1.6 | 4.8 | 0.00 | 0.00 | 0.00 | 71 | 1014.3 |
| 20260502121304 | 17 | 275 | 3.2 | 8.0 | 0.00 | 0.00 | 0.00 | 70 | 1014.5 |
| 20260502120804 | 17 | 139 | 0.0 | 3.2 | 0.00 | 0.00 | 0.00 | 71 | 1014.6 |
| 20260502115804 | 17 | 172 | 1.6 | 4.8 | 0.00 | 0.00 | 0.00 | 72 | 1014.7 |
| 20260502115306 | 17 | 294 | 3.2 | 8.0 | 0.00 | 0.00 | 0.00 | 71 | 1014.7 |
| 20260502114804 | 17 | 289 | 4.8 | 9.7 | 0.00 | 0.00 | 0.00 | 70 | 1014.8 |
| 20260502114304 | 17 | 266 | 3.2 | 8.0 | 0.00 | 0.00 | 0.00 | 72 | 1014.6 |
| 20260502113804 | 16 | 265 | 4.8 | 11.3 | 0.00 | 0.00 | 0.00 | 71 | 1014.7 |
| 20260502113304 | 17 | 281 | 3.2 | 11.3 | 0.00 | 0.00 | 0.00 | 71 | 1014.9 |
| 20260502112804 | 17 | 263 | 4.8 | 9.7 | 0.00 | 0.00 | 0.00 | 71 | 1014.9 |
| 20260502112306 | 17 | 262 | 1.6 | 9.7 | 0.00 | 0.00 | 0.00 | 72 | 1014.9 |
| 20260502111804 | 16 | 274 | 4.8 | 9.7 | 0.00 | 0.00 | 0.00 | 72 | 1015.1 |
| 20260502111304 | 16 | 0 | 0.0 | 0.0 | 0.00 | 0.00 | 0.00 | 74 | 1015.3 |
| 20260502110804 | 16 | 0 | 0.0 | 0.0 | 0.00 | 0.00 | 0.00 | 74 | 1015.4 |
| 20260502110304 | 16 | 0 | 0.0 | 0.0 | 0.00 | 0.00 | 0.00 | 74 | 1015.4 |
| 20260502105804 | 16 | 0 | 0.0 | 0.0 | 0.00 | 0.00 | 0.00 | 74 | 1015.4 |
| 20260502104804 | 16 | 0 | 0.0 | 0.0 | 0.00 | 0.00 | 0.00 | 74 | 1015.5 |
| 20260502104304 | 16 | 13 | 0.0 | 1.6 | 0.00 | 0.00 | 0.00 | 74 | 1015.8 |
| 20260502103804 | 16 | 263 | 1.6 | 1.6 | 0.00 | 0.00 | 0.00 | 74 | 1015.8 |
| 20260502103304 | 16 | 263 | 1.6 | 1.6 | 0.00 | 0.00 | 0.00 | 74 | 1015.9 |
| 20260502102804 | 16 | 265 | 0.0 | 0.0 | 0.00 | 0.00 | 0.00 | 74 | 1016.1 |
| 20260502102306 | 16 | 64 | 0.0 | 0.0 | 0.00 | 0.00 | 0.00 | 74 | 1016.0 |
| 20260502101304 | 16 | 47 | 0.0 | 0.0 | 0.00 | 0.00 | 0.00 | 74 | 1016.0 |
| 20260502100804 | 16 | 28 | 0.0 | 0.0 | 0.00 | 0.00 | 0.00 | 75 | 1015.9 |
| 20260502100304 | 16 | 115 | 0.0 | 8.0 | 0.00 | 0.00 | 0.00 | 75 | 1015.9 |
| 20260502091304 | 15 | 3 | 0.0 | 1.6 | 0.00 | 0.00 | 0.00 | 78 | 1016.3 |
| 20260502090803 | 15 | 308 | 0.0 | 0.0 | 0.00 | 0.00 | 0.00 | 78 | 1016.4 |
| 20260502090304 | 15 | 275 | 0.0 | 0.0 | 0.00 | 0.00 | 0.00 | 79 | 1016.4 |
| 20260502071304 | 12 | 71 | 0.0 | 0.0 | 0.00 | 0.00 | 0.00 | 91 | 1017.2 |
| 20260502070303 | 11 | 71 | 0.0 | 0.0 | 0.00 | 0.00 | 0.00 | 92 | 1017.2 |
| 20260502065804 | 11 | 71 | 0.0 | 0.0 | 0.00 | 0.00 | 0.00 | 92 | 1017.2 |
| 20260502065306 | 11 | 71 | 0.0 | 0.0 | 0.00 | 0.00 | 0.00 | 92 | 1017.3 |
| 20260502064304 | 10 | 71 | 0.0 | 0.0 | 0.00 | 0.00 | 0.00 | 92 | 1017.3 |
| 20260502063804 | 10 | 71 | 0.0 | 0.0 | 0.00 | 0.00 | 0.00 | 91 | 1017.3 |
| 20260502063304 | 10 | 71 | 0.0 | 0.0 | 0.00 | 0.00 | 0.00 | 91 | 1017.3 |
| 20260502062804 | 10 | 69 | 0.0 | 0.0 | 0.00 | 0.00 | 0.00 | 92 | 1017.3 |
| 20260502062306 | 10 | 69 | 0.0 | 0.0 | 0.00 | 0.00 | 0.00 | 92 | 1017.3 |
| 20260502061804 | 10 | 69 | 0.0 | 0.0 | 0.00 | 0.00 | 0.00 | 92 | 1017.3 |
| 20260502061303 | 10 | 65 | 0.0 | 0.0 | 0.00 | 0.00 | 0.00 | 92 | 1017.3 |
| 20260502060804 | 10 | 65 | 0.0 | 0.0 | 0.00 | 0.00 | 0.00 | 92 | 1017.3 |
| 20260502060304 | 10 | 65 | 0.0 | 0.0 | 0.00 | 0.00 | 0.00 | 91 | 1017.4 |
| 20260502055306 | 10 | 56 | 0.0 | 0.0 | 0.00 | 0.00 | 0.00 | 91 | 1017.4 |
| 20260502054804 | 10 | 34 | 0.0 | 0.0 | 0.00 | 0.00 | 0.00 | 91 | 1017.5 |
| 20260502054303 | 10 | 25 | 0.0 | 0.0 | 0.00 | 0.00 | 0.00 | 91 | 1017.6 |
| 20260502053804 | 10 | 25 | 0.0 | 0.0 | 0.00 | 0.00 | 0.00 | 91 | 1017.5 |
| 20260502053304 | 10 | 25 | 0.0 | 0.0 | 0.00 | 0.00 | 0.00 | 91 | 1017.6 |
| 20260502052804 | 9 | 25 | 0.0 | 0.0 | 0.00 | 0.00 | 0.00 | 91 | 1017.5 |
| 20260502052306 | 9 | 25 | 0.0 | 0.0 | 0.00 | 0.00 | 0.00 | 91 | 1017.5 |
| 20260502051804 | 9 | 25 | 0.0 | 0.0 | 0.00 | 0.00 | 0.00 | 91 | 1017.5 |
| 20260502051304 | 9 | 25 | 0.0 | 0.0 | 0.00 | 0.00 | 0.00 | 91 | 1017.4 |
| 20260502050804 | 9 | 25 | 0.0 | 0.0 | 0.00 | 0.00 | 0.00 | 91 | 1017.3 |
| 20260502045804 | 9 | 25 | 0.0 | 0.0 | 0.00 | 0.00 | 0.00 | 90 | 1017.3 |
| 20260502045306 | 9 | 25 | 0.0 | 0.0 | 0.00 | 0.00 | 0.00 | 90 | 1017.3 |
| 20260502044805 | 9 | 25 | 0.0 | 0.0 | 0.00 | 0.00 | 0.00 | 90 | 1017.3 |
| 20260502044304 | 9 | 25 | 0.0 | 0.0 | 0.00 | 0.00 | 0.00 | 90 | 1017.3 |
| 20260502043804 | 9 | 25 | 0.0 | 0.0 | 0.00 | 0.00 | 0.00 | 89 | 1017.3 |
| 20260502043304 | 9 | 25 | 0.0 | 0.0 | 0.00 | 0.00 | 0.00 | 89 | 1017.3 |
| 20260502042804 | 9 | 25 | 0.0 | 0.0 | 0.00 | 0.00 | 0.00 | 89 | 1017.3 |
| 20260502042306 | 9 | 25 | 0.0 | 0.0 | 0.00 | 0.00 | 0.00 | 88 | 1017.3 |
| 20260502041804 | 9 | 25 | 0.0 | 0.0 | 0.00 | 0.00 | 0.00 | 88 | 1017.4 |
| 20260502041304 | 9 | 25 | 0.0 | 0.0 | 0.00 | 0.00 | 0.00 | 87 | 1017.5 |
| 20260502040804 | 9 | 25 | 0.0 | 0.0 | 0.00 | 0.00 | 0.00 | 87 | 1017.5 |
| 20260502040304 | 10 | 25 | 0.0 | 0.0 | 0.00 | 0.00 | 0.00 | 87 | 1017.5 |
| 20260502035804 | 10 | 25 | 0.0 | 0.0 | 0.00 | 0.00 | 0.00 | 87 | 1017.5 |
| 20260502035306 | 11 | 24 | 0.0 | 0.0 | 0.00 | 0.00 | 0.00 | 87 | 1017.5 |
| 20260502033804 | 11 | 275 | 0.0 | 0.0 | 0.00 | 0.00 | 0.00 | 89 | 1017.7 |
| 20260502033303 | 11 | 272 | 0.0 | 0.0 | 0.00 | 0.00 | 0.00 | 89 | 1017.7 |
| 20260502032804 | 11 | 267 | 0.0 | 0.0 | 0.00 | 0.00 | 0.00 | 89 | 1017.7 |
| 20260502031804 | 11 | 267 | 0.0 | 4.8 | 0.00 | 0.00 | 0.00 | 90 | 1017.8 |
| 20260502031304 | 11 | 276 | 0.0 | 4.8 | 0.00 | 0.00 | 0.00 | 90 | 1017.8 |
| 20260502030804 | 11 | 269 | 1.6 | 4.8 | 0.00 | 0.00 | 0.00 | 90 | 1017.8 |
| 20260502030304 | 11 | 263 | 1.6 | 4.8 | 0.00 | 0.00 | 0.00 | 91 | 1017.9 |
| 20260502025804 | 11 | 287 | 0.0 | 0.0 | 0.00 | 0.00 | 0.00 | 90 | 1017.9 |
| 20260502025306 | 10 | 241 | 0.0 | 0.0 | 0.00 | 0.00 | 0.00 | 90 | 1017.9 |
| 20260502024804 | 11 | 226 | 0.0 | 0.0 | 0.00 | 0.00 | 0.00 | 90 | 1018.0 |
| 20260502024304 | 10 | 226 | 0.0 | 0.0 | 0.00 | 0.00 | 0.00 | 90 | 1018.1 |
| 20260502023804 | 10 | 226 | 0.0 | 0.0 | 0.00 | 0.00 | 0.00 | 90 | 1018.1 |
| 20260502023304 | 10 | 227 | 0.0 | 0.0 | 0.00 | 0.00 | 0.00 | 91 | 1018.1 |
| 20260502022804 | 10 | 227 | 0.0 | 0.0 | 0.00 | 0.00 | 0.00 | 91 | 1018.1 |
| 20260502022306 | 10 | 227 | 0.0 | 0.0 | 0.00 | 0.00 | 0.00 | 90 | 1018.1 |
| 20260502021804 | 10 | 227 | 0.0 | 0.0 | 0.00 | 0.00 | 0.00 | 90 | 1018.2 |
| 20260502021304 | 10 | 227 | 0.0 | 0.0 | 0.00 | 0.00 | 0.00 | 90 | 1018.3 |
| 20260502020804 | 10 | 227 | 0.0 | 0.0 | 0.00 | 0.00 | 0.00 | 90 | 1018.3 |
| 20260502015305 | 10 | 227 | 0.0 | 0.0 | 0.00 | 0.00 | 0.00 | 89 | 1018.5 |
| 20260502014804 | 10 | 227 | 0.0 | 0.0 | 0.00 | 0.00 | 0.00 | 89 | 1018.4 |
| 20260502013803 | 10 | 227 | 0.0 | 0.0 | 0.00 | 0.00 | 0.00 | 88 | 1018.5 |
| 20260502013304 | 10 | 227 | 0.0 | 0.0 | 0.00 | 0.00 | 0.00 | 88 | 1018.5 |
| 20260502012803 | 10 | 227 | 0.0 | 0.0 | 0.00 | 0.00 | 0.00 | 88 | 1018.5 |
| 20260502012306 | 10 | 227 | 0.0 | 0.0 | 0.00 | 0.00 | 0.00 | 88 | 1018.5 |
| 20260502011805 | 10 | 227 | 0.0 | 0.0 | 0.00 | 0.00 | 0.00 | 88 | 1018.5 |
| 20260502010804 | 10 | 227 | 0.0 | 0.0 | 0.00 | 0.00 | 0.00 | 88 | 1018.6 |
| 20260502010304 | 10 | 227 | 0.0 | 0.0 | 0.00 | 0.00 | 0.00 | 87 | 1018.6 |
| 20260502005804 | 11 | 227 | 0.0 | 0.0 | 0.00 | 0.00 | 0.00 | 87 | 1018.7 |
| 20260502005306 | 11 | 227 | 0.0 | 0.0 | 0.00 | 0.00 | 0.00 | 87 | 1018.7 |
| 20260502004804 | 11 | 227 | 0.0 | 0.0 | 0.00 | 0.00 | 0.00 | 87 | 1018.7 |
| 20260502004304 | 11 | 227 | 0.0 | 0.0 | 0.00 | 0.00 | 0.00 | 87 | 1018.8 |
| 20260502003804 | 11 | 227 | 0.0 | 0.0 | 0.00 | 0.00 | 0.00 | 87 | 1018.8 |
| 20260502003304 | 11 | 227 | 0.0 | 0.0 | 0.00 | 0.00 | 0.00 | 87 | 1018.8 |
| 20260502002804 | 11 | 227 | 0.0 | 0.0 | 0.00 | 0.00 | 0.00 | 87 | 1018.8 |
| 20260502002305 | 11 | 227 | 0.0 | 0.0 | 0.00 | 0.00 | 0.00 | 87 | 1018.9 |
| 20260502001804 | 11 | 227 | 0.0 | 0.0 | 0.00 | 0.00 | 0.00 | 87 | 1018.9 |
| 20260502001304 | 12 | 227 | 0.0 | 0.0 | 0.00 | 0.00 | 0.00 | 87 | 1019.0 |
| 20260502000804 | 12 | 225 | 0.0 | 0.0 | 0.00 | 0.00 | 0.00 | 87 | 1019.0 |
| 20260502000304 | 12 | 265 | 0.0 | 0.0 | 0.00 | 0.00 | 0.00 | 87 | 1019.1 |
| 20260501235804 | 12 | 277 | 0.0 | 0.0 | 0.00 | 0.00 | 0.00 | 87 | 1019.0 |
| 20260501235305 | 12 | 277 | 0.0 | 0.0 | 0.00 | 0.00 | 0.00 | 87 | 1019.1 |
| 20260501234304 | 12 | 272 | 0.0 | 0.0 | 0.00 | 0.00 | 0.00 | 87 | 1019.1 |
| 20260501233804 | 12 | 272 | 0.0 | 0.0 | 0.00 | 0.00 | 0.00 | 87 | 1019.2 |
| 20260501233304 | 12 | 272 | 0.0 | 0.0 | 0.00 | 0.00 | 0.00 | 87 | 1019.2 |
| 20260501232804 | 12 | 282 | 0.0 | 0.0 | 0.00 | 0.00 | 0.00 | 87 | 1019.2 |
| 20260501232306 | 12 | 250 | 0.0 | 0.0 | 0.00 | 0.00 | 0.00 | 87 | 1019.3 |
| 20260501231804 | 12 | 269 | 0.0 | 4.8 | 0.00 | 0.00 | 0.00 | 87 | 1019.3 |
| 20260501231304 | 12 | 255 | 1.6 | 9.7 | 0.00 | 0.00 | 0.00 | 87 | 1019.5 |
| 20260501230819 | 12 | 287 | 3.2 | 9.7 | 0.00 | 0.00 | 0.00 | 87 | 1019.5 |
| 20260501230304 | 12 | 273 | 1.6 | 4.8 | 0.00 | 0.00 | 0.00 | 87 | 1019.5 |
| 20260501225804 | 12 | 241 | 1.6 | 9.7 | 0.00 | 0.00 | 0.00 | 87 | 1019.4 |
| 20260501225306 | 12 | 252 | 3.2 | 9.7 | 0.00 | 0.00 | 0.00 | 87 | 1019.5 |
| 20260501224804 | 12 | 241 | 3.2 | 8.0 | 0.00 | 0.00 | 0.00 | 87 | 1019.5 |
| 20260501223804 | 12 | 242 | 4.8 | 11.3 | 0.00 | 0.00 | 0.00 | 88 | 1019.6 |
| 20260501222804 | 12 | 241 | 3.2 | 11.3 | 0.00 | 0.00 | 0.00 | 89 | 1019.5 |
| 20260501222305 | 12 | 232 | 1.6 | 8.0 | 0.00 | 0.00 | 0.00 | 89 | 1019.5 |
| 20260501221804 | 11 | 155 | 0.0 | 0.0 | 0.00 | 0.00 | 0.00 | 88 | 1019.5 |
| 20260501221304 | 11 | 154 | 0.0 | 0.0 | 0.00 | 0.00 | 0.00 | 88 | 1019.5 |
| 20260501220804 | 11 | 154 | 0.0 | 0.0 | 0.00 | 0.00 | 0.00 | 88 | 1019.5 |
| 20260501220303 | 11 | 154 | 0.0 | 0.0 | 0.00 | 0.00 | 0.00 | 87 | 1019.5 |
| 20260501214804 | 11 | 154 | 0.0 | 0.0 | 0.00 | 0.00 | 0.00 | 87 | 1019.4 |
| 20260501214304 | 11 | 154 | 0.0 | 0.0 | 0.00 | 0.00 | 0.00 | 87 | 1019.4 |
| 20260501213805 | 11 | 154 | 0.0 | 0.0 | 0.00 | 0.00 | 0.00 | 86 | 1019.4 |
| 20260501213304 | 11 | 154 | 0.0 | 0.0 | 0.00 | 0.00 | 0.00 | 86 | 1019.3 |
| 20260501212804 | 11 | 154 | 0.0 | 0.0 | 0.00 | 0.00 | 0.00 | 86 | 1019.3 |
| 20260501211803 | 11 | 154 | 0.0 | 0.0 | 0.00 | 0.00 | 0.00 | 86 | 1019.4 |
| 20260501211304 | 11 | 154 | 0.0 | 0.0 | 0.00 | 0.00 | 0.00 | 85 | 1019.4 |
| 20260501210804 | 12 | 267 | 0.0 | 0.0 | 0.00 | 0.00 | 0.00 | 85 | 1019.4 |
| 20260501210304 | 12 | 267 | 0.0 | 0.0 | 0.00 | 0.00 | 0.00 | 85 | 1019.4 |
| 20260501205804 | 12 | 267 | 0.0 | 0.0 | 0.00 | 0.00 | 0.00 | 85 | 1019.4 |
| 20260501205306 | 12 | 267 | 0.0 | 0.0 | 0.00 | 0.00 | 0.00 | 85 | 1019.3 |
| 20260501204305 | 12 | 267 | 0.0 | 0.0 | 0.00 | 0.00 | 0.00 | 85 | 1019.3 |
| 20260501203305 | 12 | 268 | 0.0 | 0.0 | 0.00 | 0.00 | 0.00 | 84 | 1019.3 |
| 20260501202805 | 12 | 167 | 0.0 | 0.0 | 0.00 | 0.00 | 0.00 | 84 | 1019.2 |
| 20260501202306 | 12 | 167 | 0.0 | 0.0 | 0.00 | 0.00 | 0.00 | 84 | 1019.3 |
| 20260501201805 | 12 | 167 | 0.0 | 0.0 | 0.00 | 0.00 | 0.00 | 83 | 1019.2 |
| 20260501200805 | 12 | 167 | 0.0 | 0.0 | 0.00 | 0.00 | 0.00 | 83 | 1019.1 |
| 20260501200305 | 12 | 167 | 0.0 | 0.0 | 0.00 | 0.00 | 0.00 | 83 | 1019.0 |
| 20260501195805 | 12 | 241 | 0.0 | 1.6 | 0.00 | 0.00 | 0.00 | 82 | 1019.0 |
| 20260501195306 | 13 | 218 | 0.0 | 3.2 | 0.00 | 0.00 | 0.00 | 81 | 1019.1 |